GW1279 Weather Reports


time (UTC)temp
C
wind
direction
speed
KPH
gust
KPH
rain 1hr
cm
rain 24hr
cm
rain mn
cm
humidity
%
barometer
mb
20260505011527 9 0 0.0 0.0 0.00 0.03 0.03 86 1006.5
20260505010028 9 0 0.0 0.0 0.00 0.03 0.03 84 1006.4
20260505004531 10 0 0.0 0.0 0.00 0.03 0.03 81 1006.2
20260505003028 11 0 0.0 0.0 0.00 0.03 0.03 76 1005.8
20260505001534 11 0 0.0 0.0 0.00 0.03 0.03 73 1005.6
20260505000037 12 0 0.0 0.0 0.00 0.03 0.03 69 1005.5
20260504234528 13 0 0.0 0.0 0.00 0.03 0.03 66 1005.5
20260504233029 15 0 0.0 0.0 0.00 0.03 0.03 62 1005.2
20260504231540 16 0 0.0 0.0 0.00 0.03 0.03 57 1005.1
20260504230028 17 0 0.0 6.4 0.00 0.03 0.03 50 1005.0
20260504224528 17 0 0.0 4.8 0.00 0.03 0.03 48 1005.0
20260504223030 17 0 0.0 11.3 0.00 0.03 0.03 50 1004.8
20260504221530 17 0 1.6 12.9 0.00 0.03 0.03 48 1004.8
20260504220032 17 248 4.8 20.9 0.00 0.03 0.03 49 1004.8
20260504214531 16 246 1.6 14.5 0.00 0.03 0.03 53 1004.8
20260504213030 17 0 0.0 11.3 0.00 0.03 0.03 55 1004.9
20260504211530 17 319 3.2 12.9 0.00 0.03 0.03 55 1004.6
20260504210043 16 318 4.8 14.5 0.00 0.03 0.03 56 1004.6
20260504204528 16 0 1.6 6.4 0.00 0.03 0.03 59 1004.6
20260504203033 16 240 1.6 17.7 0.00 0.03 0.03 56 1004.4
20260504201529 16 280 1.6 19.3 0.00 0.03 0.03 58 1004.4
20260504200028 16 240 4.8 20.9 0.00 0.03 0.03 60 1004.5
20260504194542 16 299 4.8 19.3 0.00 0.05 0.03 61 1004.5
20260504193030 15 261 1.6 14.5 0.00 0.05 0.03 67 1004.6
20260504191535 13 258 0.0 11.3 0.03 0.05 0.03 77 1004.6
20260504190032 12 267 0.0 3.2 0.03 0.05 0.03 80 1004.7
20260504184537 11 0 0.0 0.0 0.03 0.10 0.03 82 1005.0
20260504183028 11 0 0.0 0.0 0.03 0.10 0.03 82 1005.2
20260504181530 11 0 0.0 4.8 0.00 0.08 0.00 81 1005.3
20260504180033 11 288 0.0 4.8 0.00 0.08 0.00 76 1005.4
20260504174530 12 0 0.0 14.5 0.00 0.13 0.00 70 1005.2
20260504173035 13 302 4.8 19.3 0.00 0.13 0.00 64 1004.9
20260504171528 14 289 0.0 11.3 0.00 0.13 0.00 61 1004.5
20260504081529 1 0 0.0 1.6 0.00 0.86 0.00 81 1006.2
20260504044528 3 0 0.0 6.4 0.00 0.91 0.00 74 1005.4
20260504043028 3 0 0.0 4.8 0.00 0.91 0.00 74 1005.4
20260504041527 3 0 0.0 8.0 0.00 0.91 0.00 73 1005.3
20260504040031 3 0 0.0 1.6 0.00 0.91 0.00 74 1005.3
20260504034539 3 298 0.0 8.0 0.00 0.91 0.91 73 1005.1
20260504033031 3 0 0.0 3.2 0.00 0.91 0.91 73 1004.9
20260504031530 3 0 0.0 8.0 0.00 0.91 0.91 70 1004.8
20260504030037 3 0 0.0 6.4 0.00 0.91 0.91 71 1004.7
20260504024530 4 0 0.0 6.4 0.00 0.91 0.91 69 1004.7
20260504023030 4 0 0.0 3.2 0.00 0.91 0.91 67 1004.6
20260504021528 5 0 0.0 4.8 0.00 0.91 0.91 65 1004.6
20260504020030 5 305 0.0 12.9 0.00 0.91 0.91 64 1004.5
20260504014528 5 297 0.0 8.0 0.00 0.91 0.91 64 1004.4
20260504013029 5 0 0.0 16.1 0.00 0.91 0.91 64 1004.3